User: anonymous
Location: Charleston
(38.3500°N, 81.6330°W)
Time: 15:58:20
(UTC-04:00)
Language:

Cosmos 2228 - Orbit

View from above orbital plane
View from above orbital plane
View from above satellite
View from above satellite

Ground track
Ground track

The orbit data is extracted from the following two-line orbital elements,

1 22286U 92094A   14203.74587425  .00000333  00000-0  35307-4 0  3744
2 22286 082.5231 292.9998 0021801 042.2030 318.0860 14.85880388164891
Epoch (UTC): 22 July 2014 17:54:03
Eccentricity: 0.0021801
inclination: 82.5231°
perigee height: 595 km
apogee height: 626 km
right ascension of ascending node: 292.9998°
argument of perigee: 42.2030°
revolutions per day: 14.85880388
mean anomaly at epoch: 318.0860°
orbit number at epoch: 16489

The dashed part of the orbit path shows where the satellite is in the earth's shadow,  

DLR